Regional Weather Roundup
Issued by NWS Green Bay, WI

Home | Current Version | Previous Version | Graphics & Text | Print | Product List | Glossary Off
Versions: 1 2 3 4 5 6 7 8 9 10 11 12 13 14 15 16 17 18 19 20 21 22 23 24 25 26 27 28 29 30 31 32 33 34 35 36 37 38 39 40 41 42 43 44 45 46 47 48 49 50

000
ASUS43 KGRB 201100
RWRGRB

NORTH-CENTRAL AND NORTHEAST WISCONSIN REGIONAL WEATHER ROUNDUP
NATIONAL WEATHER SERVICE GREEN BAY WI
500 AM CST MON NOV 20 2017

WIZ005-009-010>012-018-019-201200-
NORTH CENTRAL WISCONSIN

CITY           SKY/WX    TMP DP  RH WIND       PRES   REMARKS
IRONWOOD       PTCLDY   N/A N/A N/A S9        29.71F
MANITOWISH WTR NOT AVBL
ARBOR VITAE    NOT AVBL
EAGLE RIVER    CLOUDY    13  11  95 CALM      29.73S
LAND O LAKES   NOT AVBL
RHINELANDER    CLOUDY   N/A N/A N/A CALM      29.74F
PHILLIPS       CLOUDY    24  23  95 CALM      29.71F
ANTIGO         NOT AVBL
TOMAHAWK       NOT AVBL
MERRILL        CLOUDY    16  15  93 CALM      29.76F
$$

WIZ013-073-201200-
NORTHEAST WISCONSIN

CITY           SKY/WX    TMP DP  RH WIND       PRES   REMARKS
IRON MOUNTAIN  CLOUDY    18  13  80 SE3       29.77F
MARINETTE      CLEAR     26  20  77 SW3       29.84F
$$

WIZ017-030-035>037-045-201200-
CENTRAL WISCONSIN

CITY           SKY/WX    TMP DP  RH WIND       PRES   REMARKS
MEDFORD        NOT AVBL
WAUSAU         CLOUDY    22  20  92 E3        29.76F
MOSINEE        NOT AVBL
MARSHFIELD     CLOUDY    23  19  85 S8        29.75F
WISC RAPIDS    CLOUDY    22  20  92 S3        29.81F
STEVENS POINT  NOT AVBL
WAUPACA        NOT AVBL
SHAWANO        NOT AVBL
CLINTONVILLE   NOT AVBL
WAUTOMA        CLEAR     16  13  88 CALM      29.84F
$$

WIZ038-039-048-051-201200-
FOX VALLEY

CITY           SKY/WX    TMP DP  RH WIND       PRES   REMARKS
NWS GREEN BAY  CLOUDY    30  25  81 SW6       29.84F
APPLETON       NOT AVBL
OSHKOSH        CLEAR     28  23  81 S9        29.84F
FOND DU LAC    CLEAR     31  22  69 SW13      29.85F
$$

WIZ022-050-052-201200-
EAST CENTRAL WISCONSIN

CITY           SKY/WX    TMP DP  RH WIND       PRES   REMARKS
EPHRAIM        NOT AVBL
WASHINGTON ISL NOT AVBL
STURGEON BAY   CLEAR     26  21  81 S3        29.83F
MANITOWOC      CLEAR     33  24  69 SW12      29.85F
SHEBOYGAN      CLEAR     30  24  78 SW8       29.86F
$$

LMZ563-521-522-541>543-201200-
LAKESHORE

STATION/POSITION TIME  TEMP    WIND        PRES    VSBY  WAVE
                       AIR SEA DIR/SP/G                  HT/PER
                 (UTC) (F)     (DEG/KT/KT) (MB)    (MI)  (FT/S)
SHEBOYGAN LKSHOR 1000   33     250/ 14/ 16 1011.9F
KEWAUNEE LKSHORE 1030   30     280/  7/  9 1009.7F
NORTHPORT PIER   1040   30      CALM  /  5 1010.2F
N MID LAKE BUOY  0950   36 48  250/ 10/ 12 1011.8F         2/ 4
SISTER BAY LKSHO 1019          150/  6/  7   N/A
MENOMINEE LKSHOR 1030   29     200/  6/  9 1010.1F
$$




USA.gov is the U.S. government's official web portal to all federal, state and local government web resources and services.